M I D A S
Marine Information and Data Acquisition System
Tripno 1176 of the Zeeleeuw from 2006-12-01 08:00:00 to 2006-12-01 17:00:00
Back to CruiseResearch ActivitiesStationsMapUnderway DataData graphs

EquipmentUnitsComment
TimeDGPSUTC
LatitudeDGPSDM.mWGS84
LongitudeDGPSDM.mWGS84
HeadingGyrodeg 
SOGDGPSknotsSpeed over ground
COGDGPSdegCourse over ground
DepthEcho soundermeters200 kHz
Missing or incorrect values are displayed as -999
Navigation data collected by the RV Zeeleeuw from 2006-12-01 08:00:00 to 2006-12-01 17:00:00
Time Latitude Longitude Heading SOG COG Depth
2006-12-01 09:29:22 51°21.889 2°58.369 282 2.3 337 15.8
2006-12-01 09:29:27 51°21.891 2°58.366 279.9 2.2 330 16.1
2006-12-01 09:29:32 51°21.894 2°58.363 277.6 2.2 324 16
2006-12-01 09:29:37 51°21.896 2°58.36 273.2 2.1 315 15.9
2006-12-01 09:29:42 51°21.897 2°58.356 267.9 2 307 15.7
2006-12-01 09:29:47 51°21.899 2°58.352 263.9 2 300 15.8
2006-12-01 09:29:52 51°21.9 2°58.348 257.7 2 290 15.8
2006-12-01 09:29:56 51°21.9 2°58.345 252.4 1.8 278 15.7
2006-12-01 09:30:02 51°21.9 2°58.34 246.8 1.7 269 15.9
2006-12-01 09:30:07 51°21.899 2°58.336 241 1.8 262 16
2006-12-01 09:30:12 51°21.898 2°58.332 236.1 2 250 16.1
2006-12-01 09:30:16 51°21.897 2°58.328 233.7 2.2 245 16.1
2006-12-01 09:30:22 51°21.895 2°58.322 232.3 2.5 243 16
2006-12-01 09:30:27 51°21.893 2°58.317 231.5 2.6 240 16.1
2006-12-01 09:30:32 51°21.891 2°58.312 230.3 2.8 237 16.1
2006-12-01 09:30:35 51°21.89 2°58.309 228.3 2.9 237 16
2006-12-01 09:30:35 51°21.89 2°58.309 225.7 2.9 237 16.1
2006-12-01 13:22:12 51°13.597 2°56.094 125.5 0.1 328 -999
2006-12-01 13:22:12 51°13.597 2°56.094 125.5 0.1 328 -999